www.pogodaiklimat.ru

Погода и климат >> Архив погоды >> Оман >> Buraimi


ПОГОДА в Buraimi

  • Прогноз погоды в Buraimi
  • Монитор погоды в Buraimi
  • Климат города

АРХИВ ПОГОДЫ в Buraimi

Время (UTC), дата Ветер
(напр.,м/с)
 
Видим.   Явления Облачность Т
(С)
Тd
(С)
f
(%)
Тe
(С)
Тes
(С)
Комфортность P
(гПа)
Po
(гПа)
Тmin
(С)
Tmax
(С)
R
(мм)
R24
(мм)
S
(см)
18 17.09 В 3 н/о н/о +34.8 +12.4 26 +42 +42 опасность
перегрева
1002.5 963.2 +40.7
21 17.09 В 3 н/о н/о +33.7 +16.4 36 +37 +37 очень
душно
1001.7 962.3
00 18.09 В 3 н/о н/о +31.9 +16.3 39 +35 +35 очень
душно
1002.7 963.0
03 18.09 ЮВ 2 н/о н/о +30.1 +20.3 56 +37 +37 очень
душно
1004.8 964.9
06 18.09 Ю 8 н/о н/о +36.4 +12.3 24 +36 +36 очень
жарко
1004.9 965.6 +29.9
09 18.09 Ю 5 н/о н/о +39.6 +3.9 11 +36 +36 очень
жарко
1003.1 964.2
12 18.09 З 3 н/о н/о +40.2 +5.2 12 +37 +37 очень
жарко
1001.4 962.7
15 18.09 З 3 н/о н/о +38.3 +5.7 14 +36 +36 очень
жарко
1002.2 963.2
18 18.09 З 1 н/о н/о +35.4 +10.9 23 +35 +35 очень
жарко
1004.4 965.0 +41.0
21 18.09 Ю 3 н/о н/о +32.8 +10.6 26 +32 +32 жарко 1004.5 964.8
00 19.09 Ю 7 н/о н/о +30.3 +16.1 42 +33 +33 душно 1005.3 965.3
03 19.09 Ю 6 н/о н/о +29.3 +14.8 41 +32 +32 душно 1006.8 966.6
06 19.09 Ю 8 н/о н/о +34.3 +12.7 27 +35 +35 очень
жарко
1007.1 967.5 +29.0
09 19.09 Ю 5 н/о н/о +37.4 +10.2 19 +36 +36 очень
жарко
1004.6 965.4
12 19.09 СЗ 3 н/о н/о +38.1 +10.2 19 +37 +37 очень
жарко
1002.6 963.6
15 19.09 СЗ 5 н/о н/о +37.0 +10.8 21 +36 +36 очень
жарко
1003.1 963.9
18 19.09 СЗ 4 н/о н/о +33.8 +11.2 25 +33 +33 жарко 1004.6 965.0 +39.3
21 19.09 Ю 1 н/о н/о +30.4 +9.9 28 +30 +30 жарко 1004.0 964.0
00 20.09 В 2 н/о н/о +29.8 +11.0 31 +30 +30 жарко 1003.6 963.5
03 20.09 ЮВ 4 н/о н/о +29.0 +8.8 28 +29 +29 жарко 1005.4 965.1
06 20.09 Ю 8 н/о н/о +35.2 +8.3 19 +33 +33 жарко 1005.7 966.2 +28.2
09 20.09 В 2 н/о н/о +38.6 +7.6 15 +36 +36 очень
жарко
1003.6 964.6
12 20.09 СЗ 4 н/о н/о +40.1 +7.0 13 +37 +37 очень
жарко
1001.0 962.2
15 20.09 СЗ 7 н/о н/о +36.9 +13.9 25 +37 +37 очень
жарко
1001.9 962.8
18 20.09 СЗ 2 н/о н/о +33.8 +12.1 27 +34 +34 очень
жарко
1003.7 964.2 +40.4
21 20.09 н/о н/о +32.9 +17.0 39 1002.8 963.2
00 21.09 В 5 н/о н/о +33.0 +10.6 25 +32 +32 жарко 1002.8 963.2
03 21.09 ЮВ 1 н/о н/о +31.1 +13.1 33 +32 +32 жарко 1005.2 965.2
06 21.09 Ю 3 н/о н/о +36.9 +6.8 16 +35 +35 очень
жарко
1005.8 966.5 +30.5
09 21.09 ЮЗ 2 н/о н/о +40.7 +3.3 10 +37 +37 очень
жарко
1003.1 964.4
12 21.09 З 4 н/о н/о +41.5 +3.7 10 +38 +38 очень
жарко
1001.3 962.7
15 21.09 СЗ 6 н/о н/о +38.0 +15.1 26 +39 +39 очень
душно
1002.7 963.8
18 21.09 СЗ 4 н/о н/о +33.3 +18.4 41 +38 +38 очень
душно
1005.1 965.5 +42.2
21 21.09 ЮВ 1 н/о н/о +32.7 +14.3 33 +34 +34 очень
жарко
1004.4 964.7
00 22.09 ЮВ 2 н/о н/о +31.4 +9.6 26 +31 +31 жарко 1004.2 964.3
03 22.09 ЮВ 2 н/о н/о +29.9 +8.8 27 +29 +29 жарко 1005.5 965.3
06 22.09 Ю 3 н/о н/о +37.0 +4.2 13 +34 +34 очень
жарко
1006.4 967.0 +29.4
09 22.09 З 1 н/о н/о +41.8 0.0 8 +38 +38 очень
жарко
1003.7 965.0
12 22.09 З 4 н/о н/о +41.7 +1.1 8 +38 +38 очень
жарко
1001.8 963.2
15 22.09 В 6 н/о н/о +38.9 +4.2 12 +36 +36 очень
жарко
1003.4 964.4
18 22.09 СВ 2 н/о н/о +36.7 +5.0 14 +34 +34 очень
жарко
1005.4 966.1 +43.0
21 22.09 ЮВ 3 н/о н/о +33.5 +7.0 19 +32 +32 жарко 1005.6 965.9
00 23.09 ЮВ 3 н/о н/о +32.3 +4.9 18 +30 +30 жарко 1005.6 965.7
03 23.09 В 3 н/о н/о +32.3 +5.1 18 +30 +30 жарко 1006.7 966.8
06 23.09 ЮВ 3 н/о н/о +38.2 +4.3 12 +35 +35 очень
жарко
1007.2 968.0 +31.6
09 23.09 Ю 5 н/о н/о +41.2 +3.4 10 +38 +38 очень
жарко
1004.8 966.0
12 23.09 ЮЗ 5 н/о н/о +41.6 +2.9 9 +38 +38 очень
жарко
1003.3 964.6
15 23.09 З 4 н/о н/о +39.5 +4.2 11 +36 +36 очень
жарко
1004.3 965.3
18 23.09 ЮВ 4 н/о н/о +36.2 +9.6 20 +35 +35 очень
жарко
1006.4 967.1 +42.4
21 23.09 Ю 6 н/о н/о +33.4 +6.2 18 +31 +31 жарко 1007.0 967.2
00 24.09 Ю 4 н/о н/о +31.1 +5.8 20 +29 +29 жарко 1007.0 966.9
03 24.09 Ю 3 н/о н/о +30.7 +6.1 21 +29 +29 жарко 1007.7 967.5
06 24.09 Ю 7 н/о н/о +35.8 +8.5 19 +34 +34 очень
жарко
1008.3 968.8 +30.1
09 24.09 ЮЗ 4 н/о н/о +38.2 +6.9 15 +36 +36 очень
жарко
1006.2 967.1
12 24.09 З 5 н/о н/о +39.0 +6.3 14 +36 +36 очень
жарко
1004.5 965.4

 

Местоположение метеостанции Buraimi (Оман): широта 24.23 долгота 55.78 высота над уровнем моря 299 м.

В архиве по умолчанию представлена погода в Buraimi за последнюю неделю. Архивные данные за месяц целиком и за предыдущие месяцы, начиная с января 2011 года, Вы можете получить, выбрав интересующий диапазон дат из раскрывающегося списка и нажав кнопку "Ввод!".


*Определитесь, кто Вы:
робот инопланетянин человек

Внимание! Время в таблицах - всемирное. Для получения местного времени необходимо прибавить поправку, которая в Buraimi равна 4 ч.

Смотрите также архив погоды в соседних городах и на ближайших метеорологических станциях:

Погода в Al Ain Int Airport (ОАЭ) (19 км)
Погода в Qumayra (Оман) (54 км)
Погода в Sohar Majis (Оман) (90 км)
Погода в Dubai Al Maktoum Int Airport (ОАЭ) (97 км)
Погода в Fujairah (ОАЭ) (112 км)
Погода в Abu Dhabi (ОАЭ) (117 км)
Погода в Ibri (Оман) (117 км)
Погода в Dubai (ОАЭ) (122 км)
Погода в Sharjah (ОАЭ) (125 км)
Погода в Abu Dhabi Bateen Airport (ОАЭ) (136 км)

Пояснения к столбцам:

Ветер - указаны скорость ветра в м/с - средняя за 10 мин, порывы в срок и между сроками (в фигурных скобках) и направление, откуда дует ветер: С - северный, СВ - северо-восточный, В - восточный, ЮВ - юго-восточный, Ю - южный, ЮЗ - юго-западный, З - западный, СЗ - северо-западный.
Видимость - горизонтальная дальность видимости в метрах или километрах. При видимости от 1 до 10 км при отсутствии осадков обычно наблюдается дымка, при ухудшении видимости до 1 км и менее - туман. В сухую погоду видимость может ухудшаться дымом, пылью или мглою.
Явления - указаны атмосферные явления, наблюдавшиеся в срок или в последний час перед сроком; фигурными скобками обозначены явления, наблюдавшиеся между сроками (за 1-3 часа до срока); квадратными скобками обозначены град или гололедные отложения с указанием их диаметра в мм.
Облачность - указаны через наклонную черту общая и нижняя облачность в баллах и высота нижней границы облаков в метрах; квадратными скобками обозначены формы облаков: Ci - перистые, Cs - перисто-слоистые, Cc - перисто-кучевые, Ac - высококучевые, As - высокослоистые, Sc - слоисто-кучевые, Ns - слоисто-дождевые, Cu - кучевые, Cb - кучево-дождевые. Подробнее классификацию облаков см. в Атласе облаков (PDF).
T - Температура воздуха - температура, измеренная на высоте 2 м над землей.
Td - Температура точки росы - температура, при понижении до которой содержащийся в воздухе водяной пар достигнет насыщения.
f - Относительная влажность воздуха - влажноcть воздуха, измеренная на высоте 2 м над землей.
Te - Эффективная температура - температура, которую ощущает одетый по сезону человек в тени. Характеристика душности погоды. При расчете учитывается влияние влажности воздуха и скорости ветра на теплоощущения человека.
Tes - Эффективная температура на солнце - температура, которую ощущает человек, с поправкой на солнечный нагрев. Характеристика знойности погоды. Зависит от высоты солнца над горизонтом, облачности и скорости ветра. Ночью, в пасмурную погоду, а также при ветре 12 м/с и более поправка равна нулю.
P - Атмосферное давление - приведенное к уровню моря атмосферное давление.
Po - Атмосферное давление - измеренное на уровне метеостанции атмосферное давление.
Tmin - Минимальная температура - минимум температуры воздуха на высоте 2 м над землей.
Tmax - Максимальная температура - максимум температуры воздуха на высоте 2 м над землей.
R - Количество осадков - Количество выпавших осадков за период времени, мм. При наведении курсора мыши на число - период времени, за который выпало указанное количество осадков.
R24 - Количество осадков - Количество выпавших осадков за 24 часа, мм.
S - Снежный покров - Высота снежного покрова, см. При наведении курсора мыши на число - состояние снежного покрова и степень покрытия местности в баллах.